• In Lithuania
  • List of Countries
  • For 7 days
  • Water Temperature
  • Satellite Maps
  • Weather Map
  • Weather Widgets
  • user-avatar
    Login

    Hourly Weather Bremen

    Today, 20 June, Wednesday

    Time Temperature Precipitation Wind Pressure Humidity
    00:00 +14°C° 0 mm 1 mps 766 mmHg 92%
    01:00 +14°C° 0 mm 1 mps 766 mmHg 92%
    02:00 +14°C° 0 mm 1 mps 766 mmHg 93%
    03:00 +14°C° 0 mm 2 mps 766 mmHg 94%
    04:00 +14°C° 0 mm 2 mps 766 mmHg 95%
    05:00 +14°C° 0 mm 3 mps 766 mmHg 93%
    06:00 +17°C° 0 mm 3 mps 765 mmHg 91%
    07:00 +18°C° 0 mm 4 mps 765 mmHg 89%
    08:00 +20°C° 0 mm 4 mps 765 mmHg 83%
    09:00 +21°C° 0 mm 4 mps 765 mmHg 77%
    10:00 +23°C° 0 mm 5 mps 765 mmHg 72%
    11:00 +23°C° 0.1 mm 5 mps 764 mmHg 70%
    12:00 +25°C° 0.1 mm 5 mps 764 mmHg 69%
    13:00 +26°C° 0.1 mm 5 mps 764 mmHg 67%
    14:00 +26°C° 0.1 mm 5 mps 763 mmHg 67%
    15:00 +26°C° 0.1 mm 5 mps 763 mmHg 67%
    16:00 +26°C° 0.1 mm 5 mps 763 mmHg 67%
    17:00 +26°C° 0.1 mm 4 mps 762 mmHg 71%
    18:00 +25°C° 0.1 mm 4 mps 762 mmHg 75%
    19:00 +24°C° 0.1 mm 3 mps 762 mmHg 80%
    20:00 +21°C° 0 mm 3 mps 762 mmHg 84%
    21:00 +20°C° 0 mm 2 mps 762 mmHg 89%
    22:00 +18°C° 0 mm 2 mps 762 mmHg 93%
    23:00 +17°C° 0 mm 2 mps 761 mmHg 94%

    Tomorrow, 21 June, Thursday

    Time Temperature Precipitation Wind Pressure Humidity
    00:00 +16°C° 0 mm 2 mps 761 mmHg 95%
    01:00 +16°C° 0 mm 3 mps 761 mmHg 95%
    02:00 +16°C° 0 mm 3 mps 761 mmHg 96%
    03:00 +16°C° 0 mm 3 mps 760 mmHg 96%
    04:00 +14°C° 0 mm 3 mps 760 mmHg 96%
    05:00 +15°C° 0.3 mm 4 mps 759 mmHg 96%
    06:00 +15°C° 0.3 mm 4 mps 759 mmHg 95%
    07:00 +15°C° 0.3 mm 4 mps 759 mmHg 94%
    08:00 +15°C° 0.2 mm 4 mps 759 mmHg 90%
    09:00 +15°C° 0.2 mm 5 mps 759 mmHg 87%
    10:00 +15°C° 0.2 mm 5 mps 759 mmHg 83%
    11:00 +15°C° 0.4 mm 7 mps 759 mmHg 80%
    12:00 +15°C° 0.4 mm 8 mps 759 mmHg 77%
    13:00 +15°C° 0.4 mm 9 mps 759 mmHg 74%
    14:00 +14°C° 0.1 mm 10 mps 760 mmHg 70%
    15:00 +14°C° 0.1 mm 10 mps 760 mmHg 66%
    16:00 +14°C° 0.1 mm 10 mps 761 mmHg 62%
    17:00 +13°C° 0.1 mm 9 mps 761 mmHg 65%
    18:00 +13°C° 0.1 mm 8 mps 761 mmHg 67%
    19:00 +12°C° 0.1 mm 7 mps 762 mmHg 70%
    20:00 +11°C° 0 mm 6 mps 762 mmHg 72%
    21:00 +10°C° 0 mm 6 mps 763 mmHg 73%
    22:00 +9°C° 0 mm 6 mps 763 mmHg 75%
    23:00 +9°C° 0.1 mm 6 mps 763 mmHg 76%

    Day after tomorrow, 22 June, Friday

    Time Temperature Precipitation Wind Pressure Humidity
    00:00 +9°C° 0.1 mm 6 mps 763 mmHg 77%
    01:00 +9°C° 0.1 mm 7 mps 763 mmHg 78%
    02:00 +9°C° 0.5 mm 7 mps 762 mmHg 82%
    03:00 +9°C° 0.5 mm 7 mps 762 mmHg 85%
    04:00 +10°C° 0.5 mm 7 mps 762 mmHg 89%
    05:00 +10°C° 0.5 mm 7 mps 762 mmHg 89%
    06:00 +10°C° 0.5 mm 7 mps 762 mmHg 89%
    07:00 +11°C° 0.5 mm 7 mps 762 mmHg 89%
    08:00 +11°C° 0.5 mm 7 mps 762 mmHg 86%
    09:00 +12°C° 0.5 mm 7 mps 762 mmHg 82%
    10:00 +14°C° 0.5 mm 7 mps 763 mmHg 79%
    11:00 +15°C° 0.3 mm 7 mps 763 mmHg 74%
    12:00 +16°C° 0.3 mm 8 mps 763 mmHg 69%
    13:00 +17°C° 0.3 mm 8 mps 763 mmHg 64%
    14:00 +16°C° 0.1 mm 8 mps 763 mmHg 64%
    15:00 +16°C° 0.1 mm 8 mps 764 mmHg 64%
    16:00 +16°C° 0.1 mm 8 mps 764 mmHg 65%
    17:00 +15°C° 0.1 mm 8 mps 764 mmHg 69%
    18:00 +14°C° 0.1 mm 7 mps 764 mmHg 74%
    19:00 +12°C° 0.1 mm 7 mps 765 mmHg 79%
    20:00 +13°C° 0 mm 6 mps 765 mmHg 78%
    21:00 +11°C° 0 mm 6 mps 765 mmHg 78%
    22:00 +12°C° 0 mm 5 mps 766 mmHg 77%
    23:00 +12°C° 0 mm 5 mps 766 mmHg 75%

    23 June, Saturday

    Time Temperature Precipitation Wind Pressure Humidity
    00:00 +12°C° 0 mm 5 mps 766 mmHg 73%
    01:00 +12°C° 0 mm 5 mps 766 mmHg 71%
    02:00 +10°C° 0 mm 5 mps 766 mmHg 74%
    03:00 +10°C° 0 mm 5 mps 766 mmHg 77%
    04:00 +9°C° 0 mm 5 mps 766 mmHg 80%
    05:00 +10°C° 0.1 mm 5 mps 765 mmHg 82%
    06:00 +10°C° 0.1 mm 5 mps 765 mmHg 84%
    07:00 +12°C° 0.1 mm 5 mps 765 mmHg 86%
    08:00 +13°C° 0.1 mm 6 mps 765 mmHg 82%
    09:00 +14°C° 0.1 mm 6 mps 766 mmHg 77%
    10:00 +15°C° 0.1 mm 7 mps 766 mmHg 73%
    11:00 +15°C° 0.1 mm 7 mps 766 mmHg 73%
    12:00 +15°C° 0.1 mm 7 mps 766 mmHg 72%
    13:00 +15°C° 0.1 mm 7 mps 766 mmHg 72%
    14:00 +14°C° 0.1 mm 7 mps 766 mmHg 72%
    15:00 +14°C° 0.1 mm 7 mps 766 mmHg 73%
    16:00 +14°C° 0.1 mm 7 mps 766 mmHg 73%
    17:00 +14°C° 0.1 mm 6 mps 766 mmHg 75%
    18:00 +13°C° 0.1 mm 5 mps 766 mmHg 78%
    19:00 +13°C° 0.1 mm 5 mps 766 mmHg 80%
    20:00 +12°C° 0.1 mm 5 mps 766 mmHg 82%
    21:00 +12°C° 0.1 mm 4 mps 766 mmHg 84%
    22:00 +12°C° 0.1 mm 4 mps 766 mmHg 86%
    23:00 +12°C° 0 mm 4 mps 766 mmHg 86%

    24 June, Sunday

    Time Temperature Precipitation Wind Pressure Humidity
    00:00 +12°C° 0 mm 4 mps 766 mmHg 87%
    01:00 +12°C° 0 mm 4 mps 766 mmHg 87%
    02:00 +12°C° 0 mm 4 mps 766 mmHg 88%
    03:00 +12°C° 0 mm 4 mps 766 mmHg 88%
    04:00 +12°C° 0 mm 4 mps 765 mmHg 89%
    05:00 +12°C° 0.1 mm 4 mps 766 mmHg 88%
    06:00 +13°C° 0.1 mm 4 mps 766 mmHg 88%
    07:00 +13°C° 0.1 mm 4 mps 766 mmHg 87%
    08:00 +13°C° 0.1 mm 4 mps 766 mmHg 86%
    09:00 +14°C° 0.1 mm 5 mps 766 mmHg 85%
    10:00 +14°C° 0.1 mm 5 mps 766 mmHg 83%
    11:00 +15°C° 0.1 mm 5 mps 766 mmHg 80%
    12:00 +16°C° 0.1 mm 5 mps 766 mmHg 78%
    13:00 +16°C° 0.1 mm 5 mps 766 mmHg 75%
    14:00 +16°C° 0.1 mm 5 mps 767 mmHg 74%
    15:00 +16°C° 0.1 mm 5 mps 767 mmHg 74%
    16:00 +16°C° 0.1 mm 5 mps 767 mmHg 74%
    17:00 +16°C° 0.1 mm 5 mps 767 mmHg 78%
    18:00 +15°C° 0.1 mm 4 mps 767 mmHg 82%
    19:00 +15°C° 0.1 mm 4 mps 767 mmHg 86%
    20:00 +14°C° 0.1 mm 4 mps 767 mmHg 88%
    21:00 +14°C° 0.1 mm 3 mps 767 mmHg 91%
    22:00 +13°C° 0.1 mm 3 mps 767 mmHg 93%
    23:00 +13°C° 0 mm 3 mps 767 mmHg 94%

    25 June, Monday

    Time Temperature Precipitation Wind Pressure Humidity
    00:00 +12°C° 0 mm 3 mps 767 mmHg 95%
    01:00 +12°C° 0 mm 3 mps 767 mmHg 96%
    02:00 +12°C° 0 mm 3 mps 767 mmHg 96%
    03:00 +11°C° 0 mm 3 mps 767 mmHg 96%
    04:00 +11°C° 0 mm 3 mps 767 mmHg 97%
    05:00 +12°C° 0 mm 3 mps 767 mmHg 94%
    06:00 +14°C° 0 mm 3 mps 767 mmHg 91%
    07:00 +15°C° 0 mm 4 mps 767 mmHg 88%
    08:00 +17°C° 0 mm 4 mps 767 mmHg 82%
    09:00 +19°C° 0 mm 5 mps 767 mmHg 76%
    10:00 +20°C° 0 mm 5 mps 767 mmHg 70%
    11:00 +21°C° 0 mm 5 mps 767 mmHg 67%
    12:00 +21°C° 0 mm 5 mps 767 mmHg 63%
    13:00 +22°C° 0 mm 6 mps 767 mmHg 60%
    14:00 +22°C° 0 mm 6 mps 767 mmHg 59%
    15:00 +22°C° 0 mm 5 mps 767 mmHg 59%
    16:00 +22°C° 0 mm 5 mps 766 mmHg 58%
    17:00 +21°C° 0 mm 5 mps 767 mmHg 62%
    18:00 +20°C° 0 mm 4 mps 767 mmHg 67%
    19:00 +19°C° 0 mm 4 mps 767 mmHg 71%
    20:00 +17°C° 0 mm 3 mps 767 mmHg 77%
    21:00 +14°C° 0 mm 3 mps 768 mmHg 84%
    22:00 +13°C° 0 mm 2 mps 768 mmHg 91%
    23:00 +13°C° 0 mm 2 mps 768 mmHg 92%
    Show more